DW5735 Weather Reports


Display with metric or nautical units.
time (UTC)temp
F
wind
direction
speed
MPH
gust
MPH
rain 1hr
in
rain 24hr
in
rain mn
in
humidity
%
barometer
mb
20210304003329 45 228 2.0 5.0 0.00 0.00 0.00 58 1009.7
20210304002338 45 211 4.0 4.0 0.00 0.00 0.00 61 1009.7
20210304001331 45 207 3.0 4.0 0.00 0.00 0.00 61 1009.6
20210304000916 45 226 4.0 4.0 0.00 0.00 0.00 60 1009.6
20210304000326 45 221 3.0 4.0 0.00 0.00 0.00 62 1009.7
20210304000139 45 246 3.0 4.0 0.00 0.00 0.00 62 1009.7
20210303235809 45 214 3.0 4.0 0.00 0.00 0.00 63 1009.7
20210303234351 45 236 3.0 5.0 0.00 0.00 0.00 61 1009.8
20210303233841 45 223 5.0 5.0 0.00 0.00 0.00 61 1009.7
20210303233332 45 222 3.0 5.0 0.00 0.00 0.00 60 1009.8
20210303233122 45 212 3.0 5.0 0.00 0.00 0.00 57 1009.8
20210303232913 45 229 4.0 6.0 0.00 0.00 0.00 58 1009.8
20210303232014 45 212 5.0 6.0 0.00 0.00 0.00 59 1009.8
20210303231328 45 225 4.0 4.0 0.00 0.00 0.00 57 1009.7
20210303230832 45 242 3.0 4.0 0.00 0.00 0.00 58 1009.7
20210303230339 45 249 3.0 3.0 0.00 0.00 0.00 57 1009.8
20210303225910 45 242 2.0 3.0 0.00 0.00 0.00 57 1009.8
20210303225749 44 226 2.0 4.0 0.00 0.00 0.00 55 1009.9
20210303224940 44 225 3.0 4.0 0.00 0.00 0.00 55 1010.0
20210303224342 44 219 1.0 1.0 0.00 0.00 0.00 51 1010.0
20210303223843 44 278 0.0 0.0 0.00 0.00 0.00 49 1010.0
20210303223428 44 274 0.0 1.0 0.00 0.00 0.00 50 1010.0
20210303223122 44 274 0.0 1.0 0.00 0.00 0.00 52 1010.1
20210303222916 43 274 0.0 1.0 0.00 0.00 0.00 53 1010.1
20210303221900 43 274 1.0 1.0 0.00 0.00 0.00 58 1010.2
20210303221336 43 274 1.0 2.0 0.00 0.00 0.00 55 1010.3
20210303220854 43 333 1.0 2.0 0.00 0.00 0.00 58 1010.3
20210303220335 43 291 2.0 2.0 0.00 0.00 0.00 59 1010.4
20210303215956 43 288 1.0 2.0 0.00 0.00 0.00 59 1010.4
20210303215840 43 295 2.0 2.0 0.00 0.00 0.00 57 1010.4
20210303215114 42 6 1.0 1.0 0.00 0.00 0.00 59 1010.5
20210303214541 42 34 0.0 1.0 0.00 0.00 0.00 59 1011.7
20210303214345 42 34 0.0 1.0 0.00 0.00 0.00 59 1010.6
20210303213847 41 34 0.0 2.0 0.00 0.00 0.00 60 1010.6
20210303213120 40 18 0.0 2.0 0.00 0.00 0.00 62 1011.9
20210303213052 41 23 1.0 2.0 0.00 0.00 0.00 62 1010.7
20210303212916 41 337 2.0 2.0 0.00 0.00 0.00 64 1010.7
20210303212101 41 231 1.0 2.0 0.00 0.00 0.00 65 1010.8
20210303211543 40 260 0.0 2.0 0.00 0.00 0.00 67 1012.0
20210303211342 41 261 2.0 2.0 0.00 0.00 0.00 68 1010.8
20210303210846 41 248 1.0 3.0 0.00 0.00 0.00 67 1010.8
20210303210349 40 266 3.0 3.0 0.00 0.00 0.00 65 1010.9
20210303210059 40 272 3.0 4.0 0.00 0.00 0.00 67 1010.9
20210303205846 40 278 3.0 4.0 0.00 0.00 0.00 67 1010.9
20210303205402 40 246 2.0 5.0 0.00 0.00 0.00 66 1011.0
20210303204334 40 200 3.0 5.0 0.00 0.00 0.00 68 1011.0
20210303203836 40 262 4.0 5.0 0.00 0.00 0.00 70 1011.1
20210303203341 40 218 3.0 6.0 0.00 0.00 0.00 71 1011.1
20210303203024 40 191 4.0 6.0 0.00 0.00 0.00 70 1011.2
20210303202833 40 240 5.0 6.0 0.00 0.00 0.00 71 1011.2
20210303201917 40 236 5.0 6.0 0.00 0.00 0.00 71 1011.3
20210303201325 40 186 5.0 6.0 0.00 0.00 0.00 71 1011.3
20210303200842 40 224 4.0 6.0 0.00 0.00 0.00 74 1011.3
20210303200330 40 246 4.0 5.0 0.00 0.00 0.00 74 1011.3
20210303200040 40 216 4.0 5.0 0.00 0.00 0.00 74 1011.3
20210303195842 40 236 4.0 5.0 0.00 0.00 0.00 73 1011.3
20210303194938 40 266 4.0 5.0 0.00 0.00 0.00 72 1011.4
20210303194333 40 240 2.0 3.0 0.00 0.00 0.00 71 1011.4
20210303193834 40 239 1.0 2.0 0.00 0.00 0.00 72 1011.4
20210303193411 39 260 2.0 2.0 0.00 0.00 0.00 72 1011.4
20210303193150 39 263 1.0 1.0 0.00 0.00 0.00 71 1011.4
20210303192952 39 269 1.0 2.0 0.00 0.00 0.00 72 1011.4
20210303192120 39 211 0.0 3.0 0.00 0.00 0.00 75 1011.4
20210303191325 38 266 2.0 3.0 0.00 0.00 0.00 76 1011.5
20210303190914 38 259 2.0 3.0 0.00 0.00 0.00 76 1011.6
20210303190636 38 283 3.0 3.0 0.00 0.00 0.00 76 1011.6
20210303190410 38 252 1.0 3.0 0.00 0.00 0.00 76 1011.5
20210303190127 38 248 2.0 3.0 0.00 0.00 0.00 77 1011.6
20210303185603 38 245 2.0 3.0 0.00 0.00 0.00 76 1011.7
20210303184432 38 248 2.0 3.0 0.00 0.00 0.00 77 1011.6
20210303183827 38 243 3.0 3.0 0.00 0.00 0.00 76 1011.7
20210303183427 37 253 2.0 3.0 0.00 0.00 0.00 75 1011.8
20210303182659 38 255 0.0 0.0 0.00 0.00 0.00 75 1011.7
20210303181339 37 282 0.0 0.0 0.00 0.00 0.00 75 1011.8
20210303180730 37 292 0.0 0.0 0.00 0.00 0.00 76 1011.8
20210303180128 37 293 0.0 0.0 0.00 0.00 0.00 77 1011.8
20210303174628 36 291 0.0 0.0 0.00 0.00 0.00 78 1011.8
20210303174138 36 333 0.0 0.0 0.00 0.00 0.00 77 1011.9
20210303173407 36 333 0.0 1.0 0.00 0.00 0.00 77 1012.0
20210303172453 36 30 0.0 3.0 0.00 0.00 0.00 78 1011.9
20210303171342 35 30 3.0 3.0 0.00 0.00 0.00 78 1011.8
20210303170830 35 33 2.0 3.0 0.00 0.00 0.00 79 1011.7
20210303170449 35 37 3.0 3.0 0.00 0.00 0.00 79 1011.7
20210303165938 35 47 0.0 0.0 0.00 0.00 0.00 79 1011.7
20210303164925 35 37 0.0 0.0 0.00 0.00 0.00 79 1011.7
20210303164426 35 39 0.0 0.0 0.00 0.00 0.00 79 1011.7
20210303164244 35 39 0.0 0.0 0.00 0.00 0.00 80 1011.7
20210303164048 35 33 0.0 0.0 0.00 0.00 0.00 80 1011.7
20210303163737 34 34 0.0 0.0 0.00 0.00 0.00 80 1011.7
20210303163235 34 34 0.0 0.0 0.00 0.00 0.00 80 1011.6
20210303162254 34 34 0.0 0.0 0.00 0.00 0.00 80 1011.7
20210303161352 34 34 0.0 0.0 0.00 0.00 0.00 81 1011.7
20210303160835 34 34 0.0 0.0 0.00 0.00 0.00 81 1011.7
20210303160548 34 34 0.0 0.0 0.00 0.00 0.00 81 1011.7
20210303160307 34 34 0.0 0.0 0.00 0.00 0.00 80 1011.6
20210303155629 34 34 0.0 1.0 0.00 0.00 0.00 80 1011.6
20210303155037 34 34 0.0 2.0 0.00 0.00 0.00 80 1011.5
20210303154324 34 34 1.0 2.0 0.00 0.00 0.00 80 1011.4
20210303153846 34 101 0.0 0.0 0.00 0.00 0.00 79 1011.6
20210303153347 34 101 0.0 0.0 0.00 0.00 0.00 78 1011.4
20210303153129 34 102 0.0 0.0 0.00 0.00 0.00 78 1011.4
20210303152928 34 102 0.0 0.0 0.00 0.00 0.00 77 1011.4
20210303152113 0 0.0 0.0 0.00 0.00 0.00 1011.3
20210303151340 0 0.0 0.0 0.00 0.00 0.00 1011.2
20210303151108 0 0.0 0.0 0.00 0.00 0.00 1011.1
20210303150341 0 0.0 0.0 0.00 0.00 0.00 1011.2
20210303145752 0 0.0 0.0 0.00 0.00 0.00 1011.3
20210303144918 0 0.0 0.0 0.00 0.00 0.00 1011.3
20210303144330 0 0.0 0.0 0.00 0.00 0.00 1011.2
20210303143829 0 0.0 0.0 0.00 0.00 0.00 1011.2
20210303142849 0 0.0 0.0 0.00 0.00 0.00 1011.2
20210303142700 0 0.0 0.0 0.00 0.00 0.00 1011.2
20210303141842 0 0.0 0.0 0.00 0.00 0.00 1011.3
20210303141533 0 0.0 0.0 0.00 0.00 0.00 1012.2
20210303141331 0 0.0 0.0 0.00 0.00 0.00 1011.3
20210303140043 0 0.0 0.0 0.00 0.00 0.00 1011.2
20210303135758 0 0.0 0.0 0.00 0.00 0.00 1011.2
20210303134919 0 0.0 0.0 0.00 0.00 0.00 1011.3
20210303133654 0 0.0 0.0 0.00 0.00 0.00 1011.3
20210303133432 0 0.0 0.0 0.00 0.00 0.00 1011.3
20210303132355 0 0.0 0.0 0.00 0.00 0.00 1011.2
20210303131919 0 0.0 0.0 0.00 0.00 0.00 1011.2
20210303131354 0 0.0 0.0 0.00 0.00 0.00 1011.0
20210303130835 0 0.0 0.0 0.00 0.00 0.00 1011.0
20210303130344 0 0.0 0.0 0.00 0.00 0.00 1011.2
20210303130025 0 0.0 0.0 0.00 0.00 0.00 1012.2
20210303125827 0 0.0 0.0 0.00 0.00 0.00 1011.2
20210303124851 0 0.0 0.0 0.00 0.00 0.00 1011.1
20210303124613 0 0.0 0.0 0.00 0.00 0.00 1011.1
20210303124224 0 0.0 0.0 0.00 0.00 0.00 1011.0
20210303123835 0 0.0 0.0 0.00 0.00 0.00 1010.9
20210303122436 0 0.0 0.0 0.00 0.00 0.00 1011.0
20210303121832 0 0.0 0.0 0.00 0.00 0.00 1011.0
20210303121346 0 0.0 0.0 0.00 0.00 0.00 1011.0
20210303120824 0 0.0 0.0 0.00 0.00 0.00 1011.0
20210303115833 34 100 1.0 2.0 0.00 0.00 0.00 76 1011.1
20210303115340 33 83 0.0 2.0 0.00 0.00 0.00 76 1011.0
20210303114911 33 77 0.0 2.0 0.00 0.00 0.00 76 1011.0
20210303114452 33 128 0.0 0.0 0.00 0.00 0.00 77 1011.1
20210303114155 33 131 0.0 0.0 0.00 0.00 0.00 76 1011.1
20210303113803 33 131 0.0 1.0 0.00 0.00 0.00 76 1011.1
20210303113417 33 131 0.0 1.0 0.00 0.00 0.00 76 1011.1
20210303112417 34 74 0.0 1.0 0.00 0.00 0.00 77 1011.1
20210303111850 33 72 1.0 1.0 0.00 0.00 0.00 76 1011.0
20210303111324 34 79 0.0 0.0 0.00 0.00 0.00 74 1011.1
20210303110830 34 79 0.0 0.0 0.00 0.00 0.00 73 1011.1
20210303105839 34 79 0.0 1.0 0.00 0.00 0.00 73 1011.0
20210303105426 34 79 0.0 0.0 0.00 0.00 0.00 72 1011.0
20210303104904 34 79 0.0 0.0 0.00 0.00 0.00 71 1010.9
20210303104536 34 79 0.0 1.0 0.00 0.00 0.00 72 1012.0
20210303104338 35 79 0.0 1.0 0.00 0.00 0.00 72 1011.0
20210303103849 34 79 0.0 1.0 0.00 0.00 0.00 71 1011.0
20210303103655 35 79 0.0 1.0 0.00 0.00 0.00 71 1010.9
20210303103518 34 79 1.0 2.0 0.00 0.00 0.00 72 1011.0
20210303102447 34 82 0.0 0.0 0.00 0.00 0.00 72 1011.0
20210303101848 35 127 0.0 1.0 0.00 0.00 0.00 71 1011.1
20210303101322 35 127 0.0 1.0 0.00 0.00 0.00 71 1011.0
20210303100829 35 207 0.0 1.0 0.00 0.00 0.00 71 1011.0
20210303100332 35 208 0.0 1.0 0.00 0.00 0.00 71 1011.0
20210303095836 36 208 0.0 1.0 0.00 0.00 0.00 72 1011.0
20210303095326 36 214 1.0 3.0 0.00 0.00 0.00 74 1011.0
20210303094843 36 225 1.0 3.0 0.00 0.00 0.00 77 1011.2
20210303094350 36 269 0.0 0.0 0.00 0.00 0.00 76 1011.1
20210303093831 36 139 0.0 1.0 0.00 0.00 0.00 74 1011.0
20210303093610 36 139 0.0 1.0 0.00 0.00 0.00 72 1010.9
20210303093501 36 139 0.0 0.0 0.00 0.00 0.00 72 1011.9
20210303093353 37 139 0.0 0.0 0.00 0.00 0.00 72 1011.0
20210303092425 37 88 0.0 2.0 0.00 0.00 0.00 71 1011.0
20210303091830 37 346 0.0 2.0 0.00 0.00 0.00 74 1011.0
20210303091344 37 37 1.0 2.0 0.00 0.00 0.00 71 1011.0
20210303090829 37 80 2.0 2.0 0.00 0.00 0.00 67 1011.0
20210303090344 37 75 0.0 3.0 0.00 0.00 0.00 66 1011.0
20210303085836 37 86 2.0 6.0 0.00 0.00 0.00 66 1011.1
20210303085324 37 126 3.0 6.0 0.00 0.00 0.00 67 1011.0
20210303084904 36 95 5.0 5.0 0.00 0.00 0.00 68 1010.9
20210303084351 36 87 3.0 4.0 0.00 0.00 0.00 69 1011.0
20210303083826 36 100 1.0 2.0 0.00 0.00 0.00 69 1011.0
20210303083433 35 58 1.0 2.0 0.00 0.00 0.00 70 1011.1
20210303082406 35 100 0.0 0.0 0.00 0.00 0.00 70 1011.0
20210303081920 35 99 0.0 0.0 0.00 0.00 0.00 70 1011.0
20210303081333 35 98 0.0 0.0 0.00 0.00 0.00 69 1011.0
20210303080835 35 98 0.0 0.0 0.00 0.00 0.00 71 1011.1
20210303080340 35 99 0.0 0.0 0.00 0.00 0.00 71 1011.1
20210303075833 35 99 0.0 0.0 0.00 0.00 0.00 74 1010.9
20210303075327 35 105 0.0 1.0 0.00 0.00 0.00 74 1010.9
20210303074842 35 104 0.0 1.0 0.00 0.00 0.00 72 1010.8
20210303074330 35 98 1.0 1.0 0.00 0.00 0.00 73 1010.7
20210303073830 35 86 0.0 0.0 0.00 0.00 0.00 74 1010.7
20210303073528 35 86 0.0 0.0 0.00 0.00 0.00 70 1010.6
20210303072558 35 86 0.0 1.0 0.00 0.00 0.00 72 1010.6
20210303071827 36 79 1.0 2.0 0.00 0.00 0.00 72 1010.6
20210303071340 36 79 1.0 2.0 0.00 0.00 0.00 73 1010.6
20210303070844 36 87 1.0 2.0 0.00 0.00 0.00 71 1010.5
20210303070324 36 20 1.0 2.0 0.00 0.00 0.00 71 1010.5
20210303065839 36 61 0.0 2.0 0.00 0.00 0.00 67 1010.4
20210303065340 36 60 2.0 2.0 0.00 0.00 0.00 66 1010.4
20210303064829 37 79 1.0 2.0 0.00 0.00 0.00 66 1010.4
20210303064340 37 79 0.0 2.0 0.00 0.00 0.00 64 1010.3
20210303063841 37 79 1.0 2.0 0.00 0.00 0.00 63 1010.3
20210303063416 37 86 1.0 2.0 0.00 0.00 0.00 65 1010.2
20210303062348 37 85 1.0 2.0 0.00 0.00 0.00 67 1010.0
20210303061923 37 73 1.0 3.0 0.00 0.00 0.00 68 1010.1
20210303061354 37 75 2.0 3.0 0.00 0.00 0.00 66 1010.1
20210303060842 37 120 0.0 1.0 0.00 0.00 0.00 65 1010.2
20210303060329 38 139 0.0 1.0 0.00 0.00 0.00 65 1010.2
20210303055843 38 139 0.0 4.0 0.00 0.00 0.00 65 1010.2
20210303055334 38 131 2.0 4.0 0.00 0.00 0.00 66 1010.2
20210303054829 38 148 1.0 2.0 0.00 0.00 0.00 66 1010.2
20210303054550 37 127 1.0 2.0 0.00 0.00 0.00 67 1011.0
20210303054336 38 128 2.0 2.0 0.00 0.00 0.00 67 1010.2
20210303053825 38 113 2.0 2.0 0.00 0.00 0.00 65 1010.2
20210303053413 39 110 2.0 5.0 0.00 0.00 0.00 65 1010.3
20210303053121 39 356 3.0 7.0 0.00 0.00 0.00 64 1010.2
20210303052359 40 354 5.0 7.0 0.00 0.00 0.00 66 1010.1
20210303051832 40 270 3.0 5.0 0.00 0.00 0.00 57 1010.0
20210303051323 40 211 2.0 4.0 0.00 0.00 0.00 54 1010.0
20210303050822 40 120 2.0 4.0 0.00 0.00 0.00 53 1010.1
20210303050331 39 79 3.0 4.0 0.00 0.00 0.00 55 1010.1
20210303045832 39 110 3.0 5.0 0.00 0.00 0.00 56 1010.1
20210303045326 38 87 2.0 5.0 0.00 0.00 0.00 59 1010.0
20210303044822 39 44 3.0 5.0 0.00 0.00 0.00 66 1010.0
20210303044327 39 26 4.0 5.0 0.00 0.00 0.00 61 1010.0
20210303043824 40 64 2.0 3.0 0.00 0.00 0.00 53 1009.9
20210303043411 40 79 1.0 3.0 0.00 0.00 0.00 53 1009.9
20210303043057 39 96 1.0 1.0 0.00 0.00 0.00 53 1010.0
20210303042350 39 93 1.0 2.0 0.00 0.00 0.00 56 1010.0
20210303041833 39 70 1.0 3.0 0.00 0.00 0.00 57 1010.0
20210303041355 40 49 2.0 3.0 0.00 0.00 0.00 55 1010.1
20210303040837 40 56 2.0 3.0 0.00 0.00 0.00 56 1010.2
20210303040338 40 89 1.0 3.0 0.00 0.00 0.00 54 1010.2
20210303035835 40 56 2.0 4.0 0.00 0.00 0.00 56 1010.2
20210303035353 41 46 3.0 4.0 0.00 0.00 0.00 57 1010.1
20210303034824 42 78 1.0 3.0 0.00 0.00 0.00 47 1010.1
20210303034344 42 96 2.0 2.0 0.00 0.00 0.00 48 1010.2
20210303033821 42 75 1.0 2.0 0.00 0.00 0.00 49 1010.1
20210303033349 41 91 1.0 2.0 0.00 0.00 0.00 50 1010.2
20210303032854 41 89 1.0 2.0 0.00 0.00 0.00 50 1010.2
20210303032349 41 86 1.0 2.0 0.00 0.00 0.00 50 1010.2
20210303031845 42 88 1.0 1.0 0.00 0.00 0.00 50 1010.3
20210303031326 42 88 1.0 2.0 0.00 0.00 0.00 50 1010.2
20210303030834 42 102 1.0 2.0 0.00 0.00 0.00 51 1010.1
20210303030337 42 115 2.0 2.0 0.00 0.00 0.00 52 1010.1
20210303025826 42 107 0.0 6.0 0.00 0.00 0.00 53 1010.2
20210303025341 43 50 4.0 6.0 0.00 0.00 0.00 53 1010.2
20210303024831 44 25 2.0 5.0 0.00 0.00 0.00 47 1010.2
20210303024325 44 82 1.0 4.0 0.00 0.00 0.00 42 1010.1
20210303023845 44 101 3.0 4.0 0.00 0.00 0.00 44 1010.1
20210303023422 44 105 3.0 4.0 0.00 0.00 0.00 45 1010.1
20210303023125 44 110 2.0 5.0 0.00 0.00 0.00 46 1010.0
20210303022411 43 99 4.0 5.0 0.00 0.00 0.00 47 1010.1
20210303021832 43 115 3.0 4.0 0.00 0.00 0.00 49 1010.1
20210303021327 43 85 2.0 3.0 0.00 0.00 0.00 50 1010.1
20210303020824 44 104 2.0 3.0 0.00 0.00 0.00 50 1010.0
20210303020326 44 113 2.0 4.0 0.00 0.00 0.00 51 1010.1
20210303015825 44 105 1.0 4.0 0.00 0.00 0.00 53 1010.0
20210303015345 44 64 3.0 5.0 0.00 0.00 0.00 52 1010.0
20210303014828 45 41 2.0 4.0 0.00 0.00 0.00 52 1010.1
20210303014334 46 11 3.0 4.0 0.00 0.00 0.00 39 1010.0
20210303013824 46 100 1.0 3.0 0.00 0.00 0.00 40 1009.9
20210303013435 46 111 3.0 4.0 0.00 0.00 0.00 40 1009.9
20210303013133 46 121 2.0 4.0 0.00 0.00 0.00 40 1010.0
20210303012421 46 115 3.0 4.0 0.00 0.00 0.00 40 1009.9
20210303011838 46 115 3.0 4.0 0.00 0.00 0.00 40 1010.0
20210303011324 46 101 2.0 3.0 0.00 0.00 0.00 41 1010.0
20210303010839 46 85 0.0 0.0 0.00 0.00 0.00 42 1010.1
20210303010334 46 105 0.0 1.0 0.00 0.00 0.00 42 1010.3
20210303005826 47 105 0.0 2.0 0.00 0.00 0.00 40 1010.3
20210303005330 47 108 1.0 7.0 0.00 0.00 0.00 41 1010.4
20210303004825 47 11 3.0 7.0 0.00 0.00 0.00 39 1010.4
20210303004328 47 340 2.0 11.0 0.00 0.00 0.00 40 1010.5
20210303003846 47 336 5.0 11.0 0.00 0.00 0.00 37 1010.6